GW4461 Weather Reports


Display with metric or nautical units.
time (UTC)temp
F
wind
direction
speed
MPH
gust
MPH
rain 1hr
in
rain 24hr
in
rain mn
in
humidity
%
barometer
mb
20260504050737 48 347 0.0 0.0 0.00 0.00 0.00 59 1013.1
20260504050235 48 336 0.0 0.0 0.00 0.00 0.00 57 1013.4
20260504045732 48 333 0.0 0.0 0.00 0.00 0.00 58 1013.2
20260504045227 48 341 0.0 0.0 0.00 0.00 0.00 57 1013.2
20260504044725 48 2 0.0 1.0 0.00 0.00 0.00 58 1013.1
20260504044222 49 323 0.0 0.0 0.00 0.00 0.00 58 1013.0
20260504043719 49 3 1.0 1.0 0.00 0.00 0.00 56 1013.0
20260504043216 49 352 0.0 1.0 0.00 0.00 0.00 55 1013.0
20260504042714 49 16 1.0 2.0 0.00 0.00 0.00 54 1013.0
20260504042210 50 347 0.0 1.0 0.00 0.00 0.00 54 1012.8
20260504041706 50 279 1.0 1.0 0.00 0.00 0.00 54 1012.6
20260504041201 50 354 2.0 2.0 0.00 0.00 0.00 52 1012.6
20260504040659 50 96 1.0 1.0 0.00 0.00 0.00 52 1012.6
20260504040156 50 350 1.0 1.0 0.00 0.00 0.00 54 1012.4
20260504035652 51 352 0.0 0.0 0.00 0.00 0.00 55 1012.4
20260504035149 51 345 0.0 0.0 0.00 0.00 0.00 53 1012.2
20260504034647 50 335 0.0 0.0 0.00 0.00 0.00 56 1012.2
20260504034143 51 342 0.0 0.0 0.00 0.00 0.00 56 1011.8
20260504033641 50 349 0.0 0.0 0.00 0.00 0.00 60 1011.8
20260504033138 50 327 0.0 0.0 0.00 0.00 0.00 61 1011.8
20260504032635 50 313 0.0 0.0 0.00 0.00 0.00 63 1011.7
20260504032132 50 342 0.0 0.0 0.00 0.00 0.00 66 1011.4
20260504031629 51 323 0.0 0.0 0.00 0.00 0.00 63 1011.6
20260504031125 53 326 0.0 0.0 0.00 0.00 0.00 57 1011.4
20260504030622 53 44 3.0 3.0 0.00 0.00 0.00 46 1011.0
20260504030119 53 322 1.0 1.0 0.00 0.00 0.00 49 1010.9
20260504025616 54 319 1.0 1.0 0.00 0.00 0.00 49 1010.8
20260504025113 54 0 1.0 2.0 0.00 0.00 0.00 46 1010.8
20260504024610 54 359 1.0 1.0 0.00 0.00 0.00 46 1010.2
20260504024107 54 18 1.0 2.0 0.00 0.00 0.00 46 1010.5
20260504023603 55 183 3.0 3.0 0.00 0.00 0.00 46 1010.5
20260504023059 56 327 0.0 1.0 0.00 0.00 0.00 47 1010.0
20260504022555 57 334 0.0 1.0 0.00 0.00 0.00 46 1009.9
20260504022051 57 0 2.0 2.0 0.00 0.00 0.00 46 1009.8
20260504021549 57 345 0.0 0.0 0.00 0.00 0.00 47 1009.7
20260504021046 58 348 2.0 3.0 0.00 0.00 0.00 45 1009.7
20260504020543 58 350 1.0 2.0 0.00 0.00 0.00 46 1009.6
20260504020039 58 341 2.0 2.0 0.00 0.00 0.00 46 1009.1
20260504015536 59 334 0.0 1.0 0.00 0.00 0.00 48 1009.2
20260504015032 59 348 0.0 1.0 0.00 0.00 0.00 47 1009.3
20260504014528 59 313 0.0 0.0 0.00 0.00 0.00 46 1008.9
20260504014025 60 169 3.0 4.0 0.00 0.00 0.00 45 1008.9
20260504013523 60 351 0.0 0.0 0.00 0.00 0.00 48 1009.1
20260504013020 60 333 1.0 2.0 0.00 0.00 0.00 46 1008.9
20260504012517 60 345 0.0 0.0 0.00 0.00 0.00 46 1009.1
20260504012015 61 334 0.0 0.0 0.00 0.00 0.00 44 1009.1
20260504011511 61 344 0.0 0.0 0.00 0.00 0.00 44 1008.9
20260504011008 61 17 2.0 3.0 0.00 0.00 0.00 43 1008.9
20260504010503 62 120 1.0 2.0 0.00 0.00 0.00 44 1009.1
20260504005959 62 323 1.0 2.0 0.00 0.00 0.00 43 1008.8
20260504005456 62 335 0.0 1.0 0.00 0.00 0.00 42 1008.8
20260504004954 62 358 1.0 1.0 0.00 0.00 0.00 42 1008.8
20260504004451 63 269 1.0 2.0 0.00 0.00 0.00 41 1008.9
20260504003948 63 98 1.0 2.0 0.00 0.00 0.00 41 1008.6
20260504003444 64 48 1.0 1.0 0.00 0.00 0.00 41 1008.8
20260504002941 64 338 2.0 3.0 0.00 0.00 0.00 39 1008.8
20260504002438 64 276 0.0 1.0 0.00 0.00 0.00 40 1008.5
20260504001935 65 147 3.0 3.0 0.00 0.00 0.00 39 1008.4
20260504001433 65 335 1.0 2.0 0.00 0.00 0.00 38 1008.5
20260504000930 66 35 2.0 2.0 0.00 0.00 0.00 38 1008.1
20260504000426 66 347 1.0 2.0 0.00 0.00 0.00 38 1008.3
20260503235924 65 332 1.0 1.0 0.00 0.00 0.00 39 1008.2
20260503235422 66 7 0.0 1.0 0.00 0.00 0.00 37 1008.0
20260503234919 64 0 3.0 3.0 0.00 0.00 0.00 38 1008.0
20260503234416 65 63 3.0 3.0 0.00 0.00 0.00 38 1007.7
20260503233914 67 116 2.0 4.0 0.00 0.00 0.00 37 1007.7
20260503233410 68 92 2.0 2.0 0.00 0.00 0.00 37 1007.7
20260503232907 69 341 2.0 4.0 0.00 0.00 0.00 32 1007.2
20260503232404 70 107 2.0 3.0 0.00 0.00 0.00 31 1007.2
20260503231902 70 2 1.0 2.0 0.00 0.00 0.00 32 1007.4
20260503231359 70 117 3.0 4.0 0.00 0.00 0.00 31 1006.9
20260503230855 70 178 4.0 6.0 0.00 0.00 0.00 31 1006.9
20260503230351 71 105 3.0 3.0 0.00 0.00 0.00 31 1006.9
20260503225849 72 92 2.0 3.0 0.00 0.00 0.00 28 1006.9
20260503225345 72 133 2.0 4.0 0.00 0.00 0.00 29 1006.7
20260503224842 73 87 3.0 6.0 0.00 0.00 0.00 26 1006.9
20260503224339 73 330 1.0 1.0 0.00 0.00 0.00 24 1006.6
20260503223836 71 324 0.0 1.0 0.00 0.00 0.00 26 1006.7
20260503223334 73 303 3.0 4.0 0.00 0.00 0.00 23 1006.9
20260503222830 72 263 4.0 4.0 0.00 0.00 0.00 22 1006.8
20260503222328 72 344 2.0 3.0 0.00 0.00 0.00 23 1006.7
20260503221826 72 234 6.0 8.0 0.00 0.00 0.00 23 1006.9
20260503221325 73 271 5.0 6.0 0.00 0.00 0.00 24 1006.6
20260503220820 73 342 2.0 4.0 0.00 0.00 0.00 23 1006.7
20260503220317 73 239 2.0 2.0 0.00 0.00 0.00 24 1007.0
20260503215814 73 246 2.0 2.0 0.00 0.00 0.00 22 1007.0
20260503215311 72 273 5.0 7.0 0.00 0.00 0.00 23 1006.9
20260503214809 72 160 2.0 3.0 0.00 0.00 0.00 24 1006.8
20260503214301 73 18 2.0 3.0 0.00 0.00 0.00 22 1007.0
20260503213758 72 191 3.0 4.0 0.00 0.00 0.00 22 1007.2
20260503213255 72 118 5.0 7.0 0.00 0.00 0.00 22 1007.4
20260503212752 72 289 4.0 7.0 0.00 0.00 0.00 23 1007.2
20260503212250 74 21 0.0 1.0 0.00 0.00 0.00 23 1006.9
20260503211747 72 0 0.0 1.0 0.00 0.00 0.00 25 1007.0
20260503211243 70 252 2.0 2.0 0.00 0.00 0.00 23 1007.4
20260503210739 71 215 2.0 2.0 0.00 0.00 0.00 24 1007.6
20260503210237 71 332 3.0 3.0 0.00 0.00 0.00 23 1007.4
20260503205732 71 119 4.0 4.0 0.00 0.00 0.00 24 1007.6
20260503205228 72 309 2.0 2.0 0.00 0.00 0.00 23 1007.6
20260503204724 70 246 3.0 4.0 0.00 0.00 0.00 24 1007.6
20260503204223 70 211 2.0 3.0 0.00 0.00 0.00 24 1007.5
20260503203719 70 270 4.0 6.0 0.00 0.00 0.00 24 1007.7
20260503203217 70 319 1.0 2.0 0.00 0.00 0.00 27 1008.0
20260503202714 70 261 2.0 3.0 0.00 0.00 0.00 26 1007.8
20260503202212 70 296 2.0 3.0 0.00 0.00 0.00 25 1008.0
20260503201710 71 351 2.0 3.0 0.00 0.00 0.00 26 1007.8
20260503201207 71 225 2.0 3.0 0.00 0.00 0.00 26 1008.2
20260503200703 70 208 1.0 1.0 0.00 0.00 0.00 28 1008.4
20260503200200 71 270 3.0 4.0 0.00 0.00 0.00 25 1008.3
20260503195656 68 247 2.0 3.0 0.00 0.00 0.00 30 1008.5
20260503195154 69 285 3.0 4.0 0.00 0.00 0.00 27 1008.6
20260503194650 70 249 4.0 4.0 0.00 0.00 0.00 29 1008.3
20260503194146 69 311 0.0 0.0 0.00 0.00 0.00 29 1008.5
20260503193643 69 95 2.0 2.0 0.00 0.00 0.00 31 1008.3
20260503193138 68 291 2.0 2.0 0.00 0.00 0.00 30 1008.5
20260503192634 69 302 2.0 2.0 0.00 0.00 0.00 29 1008.5
20260503192130 68 353 2.0 3.0 0.00 0.00 0.00 30 1008.6
20260503191627 68 8 1.0 1.0 0.00 0.00 0.00 31 1008.9
20260503191124 69 256 2.0 2.0 0.00 0.00 0.00 31 1009.0
20260503190621 68 319 0.0 1.0 0.00 0.00 0.00 33 1009.2
20260503190118 68 94 2.0 3.0 0.00 0.00 0.00 31 1009.2
20260503185614 68 121 2.0 2.0 0.00 0.00 0.00 30 1009.6
20260503185109 68 283 1.0 2.0 0.00 0.00 0.00 31 1009.4
20260503184604 67 279 3.0 3.0 0.00 0.00 0.00 33 1009.7
20260503184101 68 315 1.0 1.0 0.00 0.00 0.00 30 1009.6
20260503183557 66 353 2.0 2.0 0.00 0.00 0.00 32 1009.7
20260503183055 66 322 3.0 3.0 0.00 0.00 0.00 34 1009.6
20260503182553 66 253 2.0 3.0 0.00 0.00 0.00 31 1009.8
20260503182051 66 31 1.0 1.0 0.00 0.00 0.00 33 1009.9
20260503181548 66 347 1.0 2.0 0.00 0.00 0.00 33 1009.8
20260503181044 66 224 2.0 2.0 0.00 0.00 0.00 32 1009.8
20260503180541 67 202 3.0 4.0 0.00 0.00 0.00 31 1009.9
20260503180038 67 265 0.0 1.0 0.00 0.00 0.00 32 1010.1
20260503175536 66 89 1.0 2.0 0.00 0.00 0.00 33 1010.1
20260503175033 66 284 2.0 3.0 0.00 0.00 0.00 33 1010.2
20260503174530 66 94 3.0 3.0 0.00 0.00 0.00 34 1010.2
20260503174026 66 114 4.0 7.0 0.00 0.00 0.00 32 1010.2
20260503173520 63 110 2.0 2.0 0.00 0.00 0.00 34 1010.2
20260503173017 65 284 3.0 4.0 0.00 0.00 0.00 32 1010.2
20260503172515 67 96 2.0 3.0 0.00 0.00 0.00 34 1010.1
20260503172012 66 347 1.0 1.0 0.00 0.00 0.00 35 1010.5
20260503171508 66 77 1.0 1.0 0.00 0.00 0.00 32 1010.7
20260503171006 66 111 0.0 1.0 0.00 0.00 0.00 33 1010.6
20260503170502 65 274 0.0 0.0 0.00 0.00 0.00 34 1010.5
20260503150854 54 244 1.0 1.0 0.00 0.00 0.00 46 1011.0
20260503150350 53 222 2.0 3.0 0.00 0.00 0.00 45 1010.8
20260503140314 41 313 0.0 0.0 0.00 0.00 0.00 72 1011.6
20260503131239 38 314 0.0 1.0 0.00 0.00 0.00 62 1011.4
20260503130737 34 324 0.0 0.0 0.00 0.00 0.00 74 1011.7
20260503130234 34 310 1.0 1.0 0.00 0.00 0.00 75 1011.3
20260503120154 32 314 0.0 0.0 0.00 0.00 0.00 78 1011.6
20260503110621 31 304 1.0 1.0 0.00 0.00 0.00 80 1012.1
20260503110118 31 323 0.0 0.0 0.00 0.00 0.00 80 1012.0
20260503090508 32 312 0.0 0.0 0.00 0.00 0.00 79 1012.0
20260503081434 32 306 0.0 0.0 0.00 0.00 0.00 80 1012.0
20260503080931 32 306 0.0 0.0 0.00 0.00 0.00 79 1012.0
20260503080427 32 309 0.0 0.0 0.00 0.00 0.00 79 1012.1
20260503072904 33 307 0.0 0.0 0.00 0.00 0.00 76 1012.2
20260503072400 33 293 1.0 1.0 0.00 0.00 0.00 76 1012.2
20260503071857 33 311 0.0 0.0 0.00 0.00 0.00 76 1012.2
20260503071354 33 304 1.0 1.0 0.00 0.00 0.00 75 1012.3
20260503070850 33 321 0.0 0.0 0.00 0.00 0.00 76 1012.2
20260503070349 33 304 0.0 0.0 0.00 0.00 0.00 74 1012.1